Regional Weather Roundup
Issued by NWS Newport/Morehead, NC

Home | Current Version | Previous Version | Text Only | Print | Product List | Glossary On
Versions: 1 2 3 4 5 6 7 8 9 10 11 12 13 14 15 16 17 18 19 20 21 22 23 24 25 26 27 28 29 30 31 32 33 34 35 36 37 38 39 40 41 42 43 44 45 46 47 48 49 50
000
ASUS42 KMHX 240925
RWRMHX
WEATHER ROUNDUP FOR EASTERN NORTH CAROLINA
NATIONAL WEATHER SERVICE NEWPORT/MOREHEAD CITY NC
500 AM EDT TUE APR 24 2018

NOTE: "FAIR" INDICATES FEW OR NO CLOUDS BELOW 12,000 FEET
WITH NO SIGNIFICANT WEATHER AND/OR OBSTRUCTIONS TO VISIBILITY

NCZ015>017-031-032-045>047-102-103-241000-
NORTH COAST

CITY           SKY/WX    TMP DP  RH WIND       PRES   REMARKS
EDENTON        RAIN      61  57  86 E8        30.16F
ELIZABETH CITY LGT RAIN  61  54  77 E13       30.19F
KITTY HAWK     DRIZZLE   56  51  81 E8        30.18F
MANTEO         CLOUDY    59  53  79 SE13G18   30.19F

$$

NCZ045>047-081-094-103-104-241000-
CENTRAL COAST

CITY           SKY/WX    TMP DP  RH WIND       PRES   REMARKS
FRISCO         LGT RAIN  65  60  84 SE23G35   30.16F

$$

NCZ095-097-098-100-101-241000-
SOUTHERN COAST

CITY           SKY/WX    TMP DP  RH WIND       PRES   REMARKS
BEAUFORT       LGT RAIN  63  61  93 SE13G22   30.10F
CEDAR ISLAND   NOT AVBL
JACKSONVILLE   LGT RAIN  63  61  93 E17G25    30.05F
PINEY ISLAND   NOT AVBL
WILMINGTON     HVY RAIN  63  61  93 E12G25    30.03F FOG


$$

NCZ011>013-027>030-043-044-078>080-089-090>093-098-241000-
COASTAL PLAIN

CITY           SKY/WX    TMP DP  RH WIND       PRES   REMARKS
AHOSKIE        RAIN      55  53  94 NE5       30.15F
CLINTON        CLOUDY    60  60 100 E6G18     30.03F
ELIZABETHTOWN  RAIN      61  60  96 MISG      30.00F FOG
GOLDSBORO      LGT RAIN  59  57  94 E10       30.05F
GREENVILLE     RAIN      59  57  94 E6        30.12F
HAVELOCK       NOT AVBL
KENANSVILLE    LGT RAIN  59  59 100 E7        30.05F FOG
KINSTON        LGT RAIN  60  59  96 E9        30.09F
NEW BERN       LGT RAIN  60  60 100 SE9       30.11F FOG
RICHLANDS      LGT RAIN  61  60  97 E9G17     30.07F FOG
ROCKY MOUNT    LGT RAIN  57  55  93 NE8       30.10F FOG
WASHINGTON     RAIN      61  59  94 E8        30.12F
WHITEVILLE     RAIN      64  62  94 E16G28    29.94F

$$

AMZ130-135-150-152-154-156-158-170-250-252-270-ANZ085-086-088-633-658-670-241000-
MARINE OBSERVATIONS

STATION/POSITION TIME  TEMP    WIND        PRES    WAVE   SWELL
                       AIR SEA DIR/SP/G            HT/PER HT/PER
                 (UTC) (F)     (DEG/KT/KT) (MB)    (FT/S) (FT/S)
CHESAPEAKE LIGHT NOT AVBL
64 E VA BEACH    0850   55 50  110/ 16/ 17 1024.7    6/ 7
DUCK             0900   56 54  100/ 19/ 20 1022.1
2 E DUCK         0900      53                N/A     5/ 7   2/14
OREGON INLET     0900           90/  9/ 12   N/A
13E OREGON INLT  0848      52                N/A     7/ 7   7/ 7
HATTERAS CG      0900   65 62  120/ 14/ 21 1020.6
DIAMOND BUOY     0910   69 72  130/ 27/ 33 1020.9
CAPE LOOKOUT     0900          110/ 24/ 28 1019.1
BEAUFORT LAB     0900   63 62  120/ 18/ 21 1019.1
30 SE NEW RVR IN 0908   66 65  120/ 23/ 31 1016.9
30 SE NEW RVR IN 0900      65                N/A    11/ 9   2/11
27 SE WRIGHTSVLE 0908   65 65  150/ 25/ 35 1015.1
5 SE WRIGHTSVLE  0908   63 61  130/ 17/ 25 1015.1
225 S CAPE HAT   0910   68 72  120/ 27/ 33 1018.9
41 SE CHARLESTON 0910      68  170/ 10/ 17 1011.1

$$



USA.gov is the U.S. government's official web portal to all federal, state and local government web resources and services.